CW2659 Weather Reports


time (UTC)temp
F
wind
direction
speed
knots
gust
knots
rain 1hr
in
rain 24hr
in
rain mn
in
humidity
%
barometer
mb
20260505101503 51 245 8.7 13.9 0.00 0.00 0.00 95 1011.6
20260505100100 51 199 7.8 14.8 0.00 0.00 0.00 95 1011.4
20260505094606 51 204 7.8 13.9 0.00 0.00 0.00 95 1011.3
20260505093057 51 207 7.8 13.0 0.00 0.00 0.00 95 1011.2
20260505091559 51 215 8.7 12.2 0.00 0.00 0.00 94 1011.1
20260505090059 51 194 7.8 13.0 0.00 0.00 0.00 94 1011.0
20260505084552 51 197 8.7 13.9 0.00 0.00 0.00 93 1010.9
20260505083052 52 189 8.7 13.0 0.00 0.00 0.00 93 1010.9
20260505081558 52 228 9.6 13.9 0.00 0.00 0.00 93 1011.0
20260505080047 52 211 7.8 12.2 0.00 0.00 0.00 92 1010.8
20260505074602 53 201 7.0 11.3 0.00 0.00 0.00 92 1010.7
20260505073039 53 251 8.7 11.3 0.00 0.00 0.00 91 1010.5
20260505071536 53 233 7.8 12.2 0.00 0.00 0.00 90 1010.5
20260505070034 53 205 8.7 12.2 0.00 0.00 0.00 89 1010.3
20260505064534 54 200 8.7 11.3 0.00 0.00 0.00 88 1010.2
20260505063035 55 202 7.0 10.4 0.00 0.00 0.00 87 1010.1
20260505061530 55 240 8.7 12.2 0.00 0.00 0.00 86 1009.9
20260505060021 56 222 7.8 13.0 0.00 0.00 0.00 84 1009.7
20260505054522 57 226 6.1 8.7 0.00 0.00 0.00 82 1009.7
20260505053013 58 234 7.0 11.3 0.00 0.00 0.00 80 1009.6
20260505051511 59 215 7.0 10.4 0.00 0.00 0.00 79 1009.6
20260505041502 64 212 7.0 11.3 0.00 0.00 0.00 70 1008.9
20260505040101 65 250 6.1 10.4 0.00 0.00 0.00 68 1008.7
20260505034559 67 230 7.0 10.4 0.00 0.00 0.00 64 1008.6
20260505033058 68 220 7.0 9.6 0.00 0.00 0.00 61 1008.5
20260505031606 70 228 4.3 7.8 0.00 0.00 0.00 60 1008.3
20260505030056 72 250 4.3 8.7 0.00 0.00 0.00 58 1008.1
20260505024609 73 236 5.2 7.8 0.00 0.00 0.00 56 1008.1
20260505023056 74 265 5.2 7.8 0.00 0.00 0.00 53 1008.1
20260505021608 74 271 5.2 8.7 0.00 0.00 0.00 51 1008.2
20260505020053 75 251 3.5 7.8 0.00 0.00 0.00 48 1008.1
20260505014553 76 271 3.5 8.7 0.00 0.00 0.00 47 1008.2
20260505013052 77 270 4.3 8.7 0.00 0.00 0.00 45 1008.2
20260505011556 77 276 3.5 9.6 0.00 0.00 0.00 43 1008.3
20260505010050 78 230 3.5 7.8 0.00 0.00 0.00 41 1008.3
20260505004551 78 227 3.5 7.8 0.00 0.00 0.00 40 1008.3
20260505003050 78 262 5.2 8.7 0.00 0.00 0.00 37 1008.4
20260505001549 79 282 2.6 9.6 0.00 0.00 0.00 36 1008.4
20260505000047 78 267 4.3 7.8 0.00 0.00 0.00 38 1008.4
20260504234546 78 245 5.2 9.6 0.00 0.00 0.00 37 1008.5
20260504233056 78 304 5.2 10.4 0.00 0.00 0.00 36 1008.5
20260504231544 78 252 5.2 9.6 0.00 0.00 0.00 38 1008.5
20260504230044 77 190 3.5 11.3 0.00 0.00 0.00 38 1008.5
20260504224543 76 224 4.3 8.7 0.00 0.00 0.00 41 1008.8
20260504223049 77 316 4.3 8.7 0.00 0.00 0.00 42 1008.9
20260504221546 77 269 3.5 9.6 0.00 0.00 0.00 38 1009.1
20260504220058 77 234 5.2 9.6 0.00 0.00 0.00 38 1009.3
20260504214542 76 245 5.2 11.3 0.00 0.00 0.00 40 1009.2
20260504213037 76 259 4.3 11.3 0.00 0.00 0.00 38 1009.2
20260504211535 75 291 4.3 10.4 0.00 0.00 0.00 38 1009.3
20260504210035 76 234 6.1 9.6 0.00 0.00 0.00 41 1009.4
20260504204548 75 157 3.5 8.7 0.00 0.00 0.00 41 1009.5
20260504203034 75 157 2.6 7.0 0.00 0.00 0.00 39 1009.5
20260504201532 75 269 6.1 9.6 0.00 0.00 0.00 42 1009.4
20260504200034 75 201 4.3 8.7 0.00 0.00 0.00 40 1009.4
20260504194536 74 271 3.5 7.8 0.00 0.00 0.00 42 1009.5
20260504193026 74 246 2.6 7.0 0.00 0.00 0.00 43 1009.6
20260504191525 74 327 5.2 7.8 0.00 0.00 0.00 43 1009.6
20260504190029 73 273 4.3 7.8 0.00 0.00 0.00 46 1009.7
20260504184532 72 282 5.2 7.8 0.00 0.00 0.00 46 1009.7
20260504183021 71 234 4.3 7.0 0.00 0.00 0.00 48 1009.8
20260504181517 71 257 3.5 7.8 0.00 0.00 0.00 50 1009.8
20260504180013 70 298 5.2 9.6 0.00 0.00 0.00 52 1009.9
20260504174512 70 282 3.5 7.8 0.00 0.00 0.00 50 1009.8
20260504173010 69 257 3.5 6.1 0.00 0.00 0.00 54 1009.7
20260504171506 68 263 3.5 6.1 0.00 0.00 0.00 53 1009.7